ASA1415 KSEA-KBUR

Flight info

Callsign ASA1415
Flight time N/A
Altitude 33000
Route SUMMA2 SUMMA Q9 REBRG ROKKR3
Aircraft B739/M-SDE2E3FGHIRWXY/LB1

Departure

Time 2026-05-04 02:31
Airport Seattle–Tacoma International Airport (KSEA)

Arrival

Time N/A
Airport Hollywood Burbank/Bob Hope Airport (KBUR)
Time Latitude Longitude Altitude Speed Heading
2026-05-04 01:57 47.44754 -122.30139 408 ft 0 kts 336°
2026-05-04 02:22 47.44733 -122.30123 405 ft 4 kts 325°
2026-05-04 02:22 47.44713 -122.30098 402 ft 4 kts 302°
2026-05-04 02:22 47.44706 -122.30065 403 ft 4 kts 245°
2026-05-04 02:23 47.44708 -122.30059 406 ft 1 kts 235°
2026-05-04 02:25 47.44707 -122.30061 402 ft 2 kts 235°
2026-05-04 02:25 47.44690 -122.30125 405 ft 12 kts 257°
2026-05-04 02:26 47.44711 -122.30295 405 ft 21 kts 311°
2026-05-04 02:26 47.44799 -122.30463 407 ft 21 kts 285°
2026-05-04 02:26 47.44754 -122.30628 403 ft 20 kts 188°
2026-05-04 02:26 47.44617 -122.30631 399 ft 19 kts 180°
2026-05-04 02:27 47.44483 -122.30633 391 ft 19 kts 180°
2026-05-04 02:27 47.44353 -122.30634 392 ft 19 kts 180°
2026-05-04 02:27 47.44206 -122.30635 387 ft 22 kts 180°
2026-05-04 02:27 47.44045 -122.30636 384 ft 24 kts 180°
2026-05-04 02:28 47.43884 -122.30638 379 ft 23 kts 180°
2026-05-04 02:28 47.43728 -122.30640 374 ft 22 kts 180°
2026-05-04 02:28 47.43584 -122.30590 370 ft 21 kts 147°
2026-05-04 02:28 47.43444 -122.30557 369 ft 21 kts 178°
2026-05-04 02:29 47.43299 -122.30559 362 ft 20 kts 181°
2026-05-04 02:29 47.43185 -122.30650 362 ft 20 kts 247°
2026-05-04 02:29 47.43232 -122.30803 359 ft 19 kts 349°
2026-05-04 02:29 47.43392 -122.30804 367 ft 28 kts 360°
2026-05-04 02:30 47.43668 -122.30806 369 ft 65 kts
2026-05-04 02:30 47.44328 -122.30795 392 ft 122 kts
2026-05-04 02:30 47.45342 -122.30797 448 ft 164 kts
2026-05-04 02:30 47.46492 -122.30725 926 ft 169 kts
2026-05-04 02:31 47.47698 -122.30617 1453 ft 176 kts
2026-05-04 02:31 47.48916 -122.30678 2178 ft 173 kts 355°
2026-05-04 02:31 47.50172 -122.30787 2512 ft 192 kts 358°
2026-05-04 02:31 47.51593 -122.30859 2712 ft 216 kts 359°
2026-05-04 02:32 47.53141 -122.30903 2989 ft 233 kts 359°
2026-05-04 02:32 47.54843 -122.30933 3265 ft 252 kts 359°
2026-05-04 02:32 47.56636 -122.30955 3889 ft 259 kts 360°
2026-05-04 02:32 47.58425 -122.30605 4703 ft 262 kts 20°
2026-05-04 02:33 47.59943 -122.29112 5458 ft 267 kts 46°
2026-05-04 02:33 47.60855 -122.26711 6182 ft 275 kts 74°
2026-05-04 02:33 47.60930 -122.23858 6887 ft 282 kts 97°
2026-05-04 02:33 47.60564 -122.20979 7604 ft 286 kts 101°
2026-05-04 02:34 47.60103 -122.18136 8333 ft 288 kts 103°
2026-05-04 02:34 47.59585 -122.15257 9067 ft 291 kts 105°
2026-05-04 02:34 47.59012 -122.12377 9831 ft 292 kts 107°
2026-05-04 02:34 47.58409 -122.09467 10348 ft 302 kts 106°
2026-05-04 02:35 47.57805 -122.06356 10517 ft 325 kts 105°
2026-05-04 02:35 47.57190 -122.03027 10678 ft 346 kts 104°
2026-05-04 02:35 47.56558 -121.99486 10856 ft 364 kts 104°
2026-05-04 02:35 47.55903 -121.95807 11268 ft 373 kts 103°
2026-05-04 02:36 47.55476 -121.93335 11637 ft 376 kts 103°
2026-05-04 02:36 47.54829 -121.89562 12281 ft 378 kts 103°
2026-05-04 02:36 47.54216 -121.85767 12911 ft 381 kts 101°
2026-05-04 02:36 47.53640 -121.81919 13510 ft 385 kts 101°
2026-05-04 02:37 47.53061 -121.78036 14056 ft 388 kts 102°
2026-05-04 02:37 47.52434 -121.74144 14612 ft 390 kts 102°
2026-05-04 02:37 47.51772 -121.70235 15157 ft 393 kts 103°
2026-05-04 02:37 47.51092 -121.66304 15699 ft 396 kts 102°
2026-05-04 02:38 47.50430 -121.62332 16223 ft 398 kts 101°
2026-05-04 02:38 47.49856 -121.58371 16734 ft 401 kts 98°
2026-05-04 02:38 47.49313 -121.54304 17239 ft 404 kts 100°
2026-05-04 02:38 47.48711 -121.50224 17740 ft 407 kts 103°
2026-05-04 02:39 47.48006 -121.46146 18254 ft 410 kts 102°
2026-05-04 02:39 47.47349 -121.42034 18675 ft 412 kts 101°
2026-05-04 02:39 47.46721 -121.37884 19125 ft 415 kts 100°
2026-05-04 02:39 47.46090 -121.33708 19550 ft 416 kts 101°
2026-05-04 02:40 47.45410 -121.29534 19984 ft 419 kts 102°
2026-05-04 02:40 47.44684 -121.25359 20441 ft 422 kts 102°
2026-05-04 02:40 47.44007 -121.21118 20903 ft 423 kts 101°
2026-05-04 02:40 47.43349 -121.16880 21335 ft 425 kts 100°
2026-05-04 02:41 47.42686 -121.12607 21734 ft 428 kts 101°
2026-05-04 02:41 47.42004 -121.08364 22119 ft 431 kts 102°
2026-05-04 02:41 47.41271 -121.04049 22450 ft 434 kts 102°
2026-05-04 02:41 47.40553 -120.99704 22826 ft 437 kts 101°
2026-05-04 02:42 47.39841 -120.95339 23235 ft 439 kts 101°
2026-05-04 02:42 47.39153 -120.90937 23597 ft 441 kts 101°
2026-05-04 02:42 47.38465 -120.86506 23885 ft 443 kts 101°
2026-05-04 02:42 47.37758 -120.82061 24256 ft 444 kts 101°
2026-05-04 02:43 47.37080 -120.77607 24582 ft 446 kts 99°
2026-05-04 02:43 47.36474 -120.73108 24868 ft 448 kts 98°
2026-05-04 02:43 47.35898 -120.68591 25223 ft 449 kts 98°
2026-05-04 02:43 47.35270 -120.64071 25565 ft 451 kts 101°
2026-05-04 02:44 47.34562 -120.59621 25885 ft 453 kts 101°
2026-05-04 02:44 47.33822 -120.55094 26222 ft 455 kts 101°
2026-05-04 02:44 47.33067 -120.50547 26539 ft 457 kts 101°
2026-05-04 02:44 47.32295 -120.45992 26859 ft 459 kts 101°
2026-05-04 02:45 47.31507 -120.41421 27175 ft 461 kts 102°
2026-05-04 02:45 47.30701 -120.36839 27490 ft 463 kts 102°
2026-05-04 02:45 47.29929 -120.32226 27767 ft 465 kts 101°
2026-05-04 02:45 47.29193 -120.27583 28146 ft 465 kts 100°
2026-05-04 02:46 47.28500 -120.22947 28668 ft 462 kts 99°
2026-05-04 02:46 47.27853 -120.18335 29205 ft 458 kts 98°
2026-05-04 02:46 47.27261 -120.13735 29682 ft 456 kts 98°
2026-05-04 02:46 47.26683 -120.09145 30051 ft 456 kts 97°
2026-05-04 02:47 47.26120 -120.04558 30399 ft 455 kts 97°
2026-05-04 02:47 47.25505 -119.99997 30760 ft 454 kts 101°
2026-05-04 02:47 47.24698 -119.95479 31078 ft 455 kts 102°
2026-05-04 02:47 47.23891 -119.91054 31401 ft 454 kts 102°
2026-05-04 02:48 47.23121 -119.86557 31716 ft 452 kts 100°
2026-05-04 02:48 47.22446 -119.82033 32048 ft 451 kts 99°
2026-05-04 02:48 47.21846 -119.77507 32385 ft 449 kts 97°
2026-05-04 02:48 47.21301 -119.72996 32716 ft 447 kts 96°
2026-05-04 02:49 47.20805 -119.68483 32973 ft 447 kts 96°
2026-05-04 02:49 47.20278 -119.63999 32939 ft 450 kts 97°
2026-05-04 02:49 47.18989 -119.54987 32943 ft 449 kts 99°
2026-05-04 02:50 47.17559 -119.46086 32964 ft 446 kts 100°
2026-05-04 02:50 47.16104 -119.37233 32963 ft 445 kts 100°
2026-05-04 02:51 47.15358 -119.32792 32849 ft 449 kts 101°
2026-05-04 02:51 47.14584 -119.28341 32859 ft 450 kts 101°